Weather History for KELM - January, 2014

Change the Weather History Date:

Thursday, January 16, 2014

  Actual Average Record
Temperature  
Mean Temperature 27 °F -  
Max Temperature 35 °F 30 °F 60 °F (1952)
Min Temperature 19 °F 12 °F -15 °F (1957)
Degree Days  
Heating Degree Days 38    
Moisture  
Dew Point 16 °F    
Average Humidity 60    
Maximum Humidity 75    
Minimum Humidity 42    
Precipitation  
Precipitation 0.00 in - - ()
Sea Level Pressure  
Sea Level Pressure 29.92 in    
Wind  
Wind Speed 2 mph (WSW)    
Max Wind Speed 6 mph    
Max Gust Speed -    
Visibility 10 miles    
Events      
Averages and records for this station are not official NWS values.
T = Trace of Precipitation, MM = Missing Value Source: NWS Daily Summary

Daily Weather History Graph

Daily Weather History Graph

Search for Another Location

Airport or City:

Trip Planner

Search our weather history database for the weather conditions in past years. The results will help you decide how hot, cold, wet, or windy it might be!

Date:

Astronomy

Jan. 16, 2014 Rise Set
Actual Time 7:33 AM EST 5:02 PM EST
Civil Twilight 7:02 AM EST 5:32 PM EST
Nautical Twilight 6:27 AM EST 6:07 PM EST
Astronomical Twilight 5:54 AM EST 6:40 PM EST
Moon 5:53 PM EST (1/16) 7:23 AM EST (1/16)
Length of Visible Light 10h 30m
Length of Day
9h 28m
Full, 100% of the Moon is Illuminated
Jan 16
Full
Jan 24
Last Quarter
Jan 30
New
Feb 6
First Quarter
Feb 14
Full

Hourly Weather History & Observations

Time (EST) Temp. Windchill Dew Point Humidity Pressure Visibility Wind Dir Wind Speed Gust Speed Precip Events Conditions
12:53 AM 30.0 °F 26.5 °F 18.0 °F 61% 29.94 in 10.0 mi North 3.5 mph - N/A   Overcast
1:53 AM 30.0 °F - 18.0 °F 61% 29.95 in 10.0 mi Calm Calm - N/A   Overcast
2:53 AM 30.0 °F - 18.0 °F 61% 29.95 in 10.0 mi Calm Calm - N/A   Overcast
3:53 AM 28.9 °F 25.2 °F 19.0 °F 67% 29.95 in 10.0 mi NW 3.5 mph - N/A   Overcast
4:53 AM 28.9 °F - 17.1 °F 61% 29.96 in 10.0 mi Calm Calm - N/A   Overcast
5:53 AM 27.0 °F - 14.0 °F 58% 29.96 in 10.0 mi Calm Calm - N/A   Overcast
6:53 AM 26.1 °F - 14.0 °F 60% 29.95 in 10.0 mi Calm Calm - N/A   Scattered Clouds
7:53 AM 19.9 °F - 12.9 °F 74% 29.95 in 10.0 mi Calm Calm - N/A   Clear
8:53 AM 25.0 °F 20.7 °F 16.0 °F 69% 29.98 in 10.0 mi SSW 3.5 mph - N/A   Scattered Clouds
9:53 AM 28.0 °F 24.2 °F 17.1 °F 63% 29.99 in 10.0 mi WSW 3.5 mph - N/A   Overcast
10:53 AM 28.9 °F - 12.0 °F 49% 29.98 in 10.0 mi Calm Calm - N/A   Overcast
11:53 AM 30.9 °F 27.5 °F 14.0 °F 50% 29.93 in 10.0 mi WSW 3.5 mph - N/A   Clear
12:53 PM 34.0 °F 28.8 °F 15.1 °F 46% 29.88 in 10.0 mi West 5.8 mph - N/A   Clear
1:53 PM 34.0 °F 31.0 °F 14.0 °F 44% 29.87 in 10.0 mi SW 3.5 mph - N/A   Partly Cloudy
2:53 PM 35.1 °F 30.1 °F 14.0 °F 42% 29.86 in 10.0 mi Variable 5.8 mph - N/A   Clear
3:53 PM 34.0 °F 28.8 °F 15.1 °F 46% 29.85 in 10.0 mi WSW 5.8 mph - N/A   Clear
4:53 PM 32.0 °F 28.7 °F 15.1 °F 50% 29.85 in 10.0 mi SW 3.5 mph - N/A   Clear
5:53 PM 25.0 °F - 17.1 °F 72% 29.87 in 10.0 mi Calm Calm - N/A   Clear
6:53 PM 27.0 °F - 17.1 °F 66% 29.88 in 10.0 mi Calm Calm - N/A   Clear
7:53 PM 26.1 °F - 19.0 °F 75% 29.89 in 10.0 mi Calm Calm - N/A   Clear
8:53 PM 28.0 °F 22.8 °F 18.0 °F 66% 29.89 in 10.0 mi South 4.6 mph - N/A   Clear
9:53 PM 27.0 °F 20.5 °F 16.0 °F 63% 29.89 in 10.0 mi ESE 5.8 mph - N/A   Scattered Clouds
10:53 PM 24.1 °F - 15.1 °F 69% 29.90 in 10.0 mi Calm Calm - N/A   Mostly Cloudy
11:53 PM 24.1 °F - 16.0 °F 71% 29.88 in 10.0 mi Calm Calm - N/A   Mostly Cloudy